Preview of NWS' New Version of Forecast
This preview is not operational and should not be used for support decisions.

Regional Weather Roundup (RWR)

Issued by Gray - Portland, ME (GYX)

                            
000
ASUS41 KGYX 230710
RWRGYX
WEATHER ROUNDUP FOR MAINE AND NEW HAMPSHIRE
NATIONAL WEATHER SERVICE GRAY ME
300 AM EDT MON SEP 23 2019

MEZ002-005-006-010-012-015-018-020-021-024-026-027-029-230800-
MAINE
  
CITY           SKY/WX    TMP DP  RH WIND       PRES   REMARKS
PORTLAND       FAIR      69  61  75 SW6       29.83F                  
SANFORD        FAIR      69  63  81 SW8       29.85F                  
BAR HARBOR     FAIR      62  60  93 S8        29.81F                  
WISCASSET      FAIR      67  61  81 CALM      29.83F                  
ROCKLAND       FAIR      67  62  84 SW13      29.82F                  
FRYEBURG       FAIR      75  62  64 SW8       29.82F                  
LEWISTONAUBURN FAIR      70  63  78 S8        29.81F                  
AUGUSTA        FAIR      66  61  84 S8        29.80F                  
WATERVILLE     FAIR      65  61  87 S5        29.77F                  
BANGOR         MOCLDY    67  60  78 S9        29.77F                  
GREENVILLE       N/A     69  61  75 CALM      29.75F                  
MILLINOCKET    MOCLDY    70  61  73 VRB5      29.72F                  
HOULTON        MOCLDY    68  60  75 SW9       29.67F                  
PRESQUE ISLE   FAIR      76  61  59 SW15G24   29.62F                  
FRENCHVILLE    MOCLDY    72  60  66 SW14G29   29.57F                  
CARIBOU        FAIR      74  60  61 SW15G26   29.60F                  
$$

NHZ002-005-008-009-011-012-014-230800-
NEW HAMPSHIRE
  
CITY           SKY/WX    TMP DP  RH WIND       PRES   REMARKS
PORTSMOUTH     MOCLDY    70  61  74 SW8       29.85F                  
ROCHESTER      FAIR      66  60  81 CALM      29.86F                  
NASHUA         FAIR      67  65  93 CALM      29.89F                  
MANCHESTER     FAIR      70  62  76 S6        29.87F                  
CONCORD        FAIR      65  61  87 S5        29.87F                  
LACONIA        FAIR      69  63  81 SW5       29.86F                  
PLYMOUTH       FOG       59  58  96 CALM      29.86F VSB 1/4          
BERLIN         FAIR      74  62  66 S7        29.82F                  
WHITEFIELD     FAIR      71  61  70 SW3       29.84F                  
JAFFREY        FAIR      66  60  81 S3        29.93F                  
KEENE          FAIR      59  59 100 CALM      29.90F FOG              
LEBANON        FAIR      65  60  84 S3        29.85F                  
MT WASHINGTON  FOG       54  54 100 W75G83      N/A  VSB 0            
$$

VTZ005-007-008-230800-
VERMONT
  
CITY           SKY/WX    TMP DP  RH WIND       PRES   REMARKS
ST JOHNSBURY     N/A     68  63  84 MISG      29.80F                  
MONTPELIER     FAIR      76  63  64 W9G23     29.87F                  
BURLINGTON     FAIR      75  64  68 S13       29.79F                  
$$

MAZ007-012-024-CTZ003-RIZ002-NYZ038-NYZ072-230800-
SOUTHERN NEW ENGLAND AND NY
  
CITY           SKY/WX    TMP DP  RH WIND       PRES   REMARKS
BOSTON         MOCLDY    71  62  73 SW15      29.90F                  
WORCESTER      FAIR      66  63  90 SW13      29.94F                  
NANTUCKET      FAIR      66  65  96 SW13      29.99F                  
PROVIDENCE     FAIR      68  64  87 SW7       29.95F                  
HARTFORD       FAIR      67  63  87 S8        29.92F                  
ALBANY         FAIR      73  63  70 S12       29.89F                  
NEW YORK CITY  FAIR      75  64  68 SW10      29.95F                  
$$

ANZ081-ANZ082-ANZ150-NHZ014-MEZ023>029-230800-
COASTAL MARINE OBSERVATIONS
  
STATION/POSITION TIME  TEMP    WIND        PRES    WAVE
                       AIR SEA DIR/SP/G            HT/PER
                 (UTC) (F)     (DEG/KT/KT) (MB)    (FT/S)
MOUNT DESERT ROC 0700          210/ 23/ 25 1009.7F
MATINICUS ROCK   0650   62                 1009.9F
ISLE OF SHOALS   0600   69     220/ 21/ 21 1011.2F
JEFFREYS LEDGE   0638      63                N/A     3/ 4
CASHES LEDGE BUO 0650   64 61  220/ 19/ 21 1011.6F   4/ 5
GEORGES BANK BUO 0650   62 59              1017.5F   2/12
$$

.............KEY..............
   WCI - WIND CHILL
   TC  - TEMPERATURE IN CELSIUS
   VSB - VISIBILITY IN MILES
   HX  - HEAT INDEX
   FAIR- INDICATES FEW OR NO CLOUDS BELOW 12,000 FT, WITH NO 
         SIGNIFICANT WEATHER AND/OR OBSTRUCTIONS TO VISIBILITY.